Weather observations for the past three days for
Moline Quad-City Airport
Metric (Imperial)
Date Time (cdt) Wind (kph) Vis. (km) Weather Sky Cond. Temperature (ºC) Relative Humidity Wind Chill (°C) Heat Index (°C) Pressure Precipitation (cm)
Air Dwpt 6 hour altimeter (cm) sea level (mb) 1 hr 3 hr 6 hr
Max. Min.
04 13:52 W 15 16.09 Fair CLR 35 23.3 51% 41 76.02 1012.9
04 12:52 W 11 16.09 Fair CLR 33.9 22.8 35 23.9 52% 39 76.05 1013.2
04 10:52 S 9 16.09 Fair CLR 31.1 23.9 66% 37 76.07 1013.5
04 09:52 SW 6 16.09 Fair CLR 29.4 22.8 68% 33 76.05 1013.4
04 08:52 W 13 16.09 Fair CLR 28.3 22.2 70% 31 76.02 1012.9
04 07:52 SW 11 16.09 Fair CLR 26.1 21.7 77% 28 75.97 1012.4
04 06:52 Calm 16.09 Fair CLR 23.9 21.1 26.1 23.9 84% 24 75.95 1011.8
04 05:52 Calm 16.09 Fair CLR 24.4 21.1 82% 25 75.95 1011.7
04 04:52 Calm 16.09 Fair CLR 23.9 21.7 88% 24 75.92 1011.6
04 03:52 Calm 16.09 Fair CLR 25.6 21.7 79% 27 75.9 1011.1
04 02:52 S 7 16.09 Fair CLR 25.6 22.2 82% 27 75.9 1011.2
04 01:52 Calm 16.09 Fair CLR 24.4 22.2 88% 25 75.92 1011.7
04 00:52 Calm 16.09 Fair CLR 25 22.8 31.1 25 88% 26 75.95 1012.1
03 23:52 Calm 16.09 Fair CLR 26.1 23.3 85% 28 75.95 1011.9
03 22:52 S 13 16.09 Fair CLR 26.7 23.9 85% 29 75.92 1011.7
03 21:52 S 9 16.09 Fair CLR 26.1 24.4 90% 28 75.92 1011.7
03 20:52 S 7 16.09 Fair CLR 26.1 24.4 90% 28 75.9 1011.2
03 19:52 S 7 16.09 Fair CLR 28.9 24.4 77% 34 75.84 1010.4
03 18:52 S 15 16.09 Fair CLR 31.1 25 35 31.1 70% 38 75.79 1010.0
03 17:52 S 11 16.09 Fair CLR 32.8 24.4 61% 39 75.84 1010.5
03 16:52 S 9 16.09 Fair CLR 33.9 23.9 56% 40 75.9 1011.1
03 15:52 S 9 16.09 A Few Clouds FEW110 34.4 23.3 52% 40 75.92 1011.5
03 14:52 S 11 16.09 Fair CLR 34.4 22.8 51% 40 75.95 1011.8
03 13:52 N 9 16.09 Fair CLR 34.4 21.7 48% 38 75.97 1012.0
03 12:52 Vrbl 9 16.09 Fair CLR 33.3 22.2 33.9 24.4 52% 38 76 1012.6
03 11:52 Calm 16.09 Fair CLR 32.8 22.8 56% 38 76.02 1013.0
03 10:52 W 9 16.09 Fair CLR 31.7 22.8 59% 36 76.05 1013.3
03 09:52 SW 11 16.09 Fair CLR 30 22.2 63% 33 76 1012.7
03 08:52 SW 9 16.09 Fair CLR 28.3 22.2 70% 31 76 1012.7
03 07:52 Calm 16.09 Partly Cloudy SCT120 26.1 21.7 77% 28 76.02 1012.8
03 06:52 Calm 16.09 Fair CLR 24.4 21.1 26.7 23.9 82% 25 76 1012.5
03 05:52 S 6 16.09 Fair CLR 25 21.1 79% 26 75.97 1012.2
03 04:52 Calm 16.09 Mostly Cloudy BKN110 25.6 21.1 76% 27 75.97 1012.1
03 03:52 Calm 16.09 Fair CLR 25.6 21.7 79% 27 75.95 1012.1
03 02:52 Calm 16.09 Fair CLR 25.6 22.2 82% 27 75.95 1011.9
03 01:52 S 11 16.09 Fair CLR 26.7 21.7 74% 29 75.95 1011.9
03 00:52 S 13 16.09 Fair CLR 26.7 22.2 31.1 26.7 76% 29 75.95 1012.0
02 23:52 S 7 16.09 Fair CLR 26.7 22.8 79% 29 75.95 1012.0
02 22:52 S 9 16.09 Fair CLR 27.2 23.3 79% 30 75.95 1011.9
02 21:52 S 11 16.09 Fair CLR 28.3 23.3 74% 32 75.92 1011.7
02 20:52 S 9 16.09 Fair CLR 28.3 23.9 77% 32 75.92 1011.5
02 19:52 S 9 16.09 Fair CLR 28.9 25 80% 34 75.9 1011.4
02 18:52 S 11 16.09 Fair CLR 31.1 25 35 31.1 70% 38 75.9 1011.3
02 17:52 S 15 16.09 Fair CLR 32.2 23.9 62% 38 75.9 1011.4
02 16:52 SW 15 16.09 Fair CLR 33.9 23.9 56% 40 75.92 1011.7
02 15:52 SW 22 16.09 Fair CLR 34.4 23.3 52% 40 75.95 1011.9
02 14:52 SW 19 16.09 Fair CLR 35 22.2 47% 40 75.97 1012.2
02 13:52 SW 22 16.09 Fair CLR 34.4 22.2 49% 39 76 1012.6
02 12:52 SW 19 16.09 Fair CLR 34.4 21.7 34.4 22.2 48% 38 76.02 1013.0
02 11:52 W 15 16.09 Fair CLR 32.8 22.8 56% 38 76.07 1013.6
02 10:52 S 9 16.09 Fair CLR 31.1 23.3 63% 36 76.07 1013.6
02 09:52 S 9 16.09 Fair CLR 28.9 21.7 65% 32 76.07 1013.7
02 08:52 W 7 16.09 A Few Clouds FEW100 27.2 21.7 72% 29 76.12 1014.2
02 07:52 Calm 16.09 Fair CLR 25 21.1 79% 26 76.07 1013.7
02 06:52 Calm 16.09 Fair CLR 22.8 20 26.1 21.1 84% 76.07 1013.5
02 05:52 Calm 16.09 Fair CLR 22.8 20 84% 76.05 1013.1
02 04:52 Calm 16.09 Partly Cloudy SCT100 21.7 20 90% 76.07 1013.6
02 03:52 Calm 16.09 Fair CLR 23.9 20.6 82% 24 76.05 1013.2
02 02:52 Calm 16.09 Fair CLR 24.4 20.6 79% 25 76.02 1012.9
02 01:52 SW 9 16.09 Fair CLR 25 20.6 77% 26 76.02 1012.9
02 00:52 S 13 16.09 Fair CLR 26.1 21.1 30 26.1 74% 28 76.02 1012.9
01 23:52 S 15 16.09 Fair CLR 26.7 21.1 71% 28 76.05 1013.3
01 22:52 S 11 16.09 Fair CLR 26.7 21.7 74% 29 76.02 1013.1
01 21:52 S 13 16.09 Fair CLR 27.8 22.2 72% 30 76.02 1013.1
01 19:52 S 9 16.09 Fair CLR 28.3 23.9 77% 32 75.97 1012.5
01 18:52 S 7 16.09 Fair CLR 30.6 25 35 30.6 72% 37 76 1012.5
01 17:52 SW 7 16.09 Fair CLR 33.3 22.2 52% 38 76 1012.6
01 16:52 SW 9 16.09 Fair CLR 34.4 23.3 52% 40 76 1012.7
01 14:52 SW 19 16.09 Fair CLR 34.4 22.2 49% 39 76.02 1013.1
Date Time (cdt) Wind (kph) Vis. (km) Weather Sky Cond. Air Dwpt Max. Min. Relative Humidity Wind Chill (°C) Heat Index (°C) altimeter (cm) sea level (mb) 1 hr 3 hr 6 hr
6 hour
Temperature (ºC) Pressure Precipitation (cm)